Hourly Data Report for December 07, 2017

VICTORIA UNIVERSITY CS
BRITISH COLUMBIA

48°27'25.200" N
123°18'16.600" W
60.10 m
1018598
71783
WYJ

Download Data

Hourly Data (December 2017)
Hourly Data Report for December 7, 2017
TIME
LST
Temp Definition
°C
Dew Point Definition
°C
Rel Hum Definition
%
Precip. Amount Definition
mm

Wind Dir Definition
10's deg

Wind Spd Definition
km/h
Visibility Definition
km
Stn Press Definition
kPa
Hmdx Definition


Wind Chill Definition


Weather Definition


00:00 4.9 3.7 92 0.0 35 10   102.80     LegendNANA
01:00 4.9 3.3 90 0.0 35 9   102.76     LegendNANA
02:00 5.0 3.0 87 0.0 1 10   102.74     LegendNANA
03:00 4.3 3.6 95 0.0 1 9   102.74     LegendNANA
04:00 4.6 3.0 89 0.0 36 9   102.70     LegendNANA
05:00 3.7 2.4 91 0.0 35 9   102.68     LegendNANA
06:00 3.2 2.1 93 0.0 34 7   102.68     LegendNANA
07:00 3.3 2.4 94 0.0 35 7   102.70     LegendNANA
08:00 3.4 2.8 95 0.0 34 9   102.67     LegendNANA
09:00 3.7 3.3 97 0.0 34 9   102.69     LegendNANA
10:00 4.9 4.0 94 0.0 35 8   102.68     LegendNANA
11:00 5.8 3.6 86 0.0 35 12   102.64     LegendNANA
12:00 6.5 3.7 82 0.0 34 13   102.62     LegendNANA
13:00 7.0 3.5 79 0.0 36 12   102.57     LegendNANA
14:00 7.1 3.4 77 0.0 35 11   102.53     LegendNANA
15:00 6.9 3.1 77 0.0 36 11   102.55     LegendNANA
16:00 6.2 2.8 78 0.0 35 8   102.55     LegendNANA
17:00 5.8 3.9 88 0.0 35 6   102.56     LegendNANA
18:00 5.0 4.0 93 0.0 1 4   102.57     LegendNANA
19:00 4.8 4.1 95 0.0 36 6   102.58     LegendNANA
20:00 4.6 4.0 96 0.0 1 6   102.59     LegendNANA
21:00 4.5 4.1 97 0.0 1 7   102.61     LegendNANA
22:00 4.1 3.8 98 0.0 35 7   102.63     LegendNANA
23:00 4.0 3.7 98 0.0 1 11   102.64     LegendNANA

Notes on Data Quality.

Legend

  • E = Estimated
  • M = Missing
  • NA = Not Available*
  • [empty] = Indicates an unobserved value
Date modified: